Regional Weather Roundup
Issued by NWS

Home | Current Version | Previous Version | Graphics & Text | Print | Product List | Glossary On
Versions: 1 2 3 4 5 6 7 8 9 10 11 12 13 14 15 16 17 18 19 20 21 22 23 24 25 26 27 28 29 30 31 32 33 34 35 36 37 38 39 40 41 42 43 44 45 46 47 48 49 50
000
ASUS43 KMKX 230811
RWRWI

WISCONSIN REGIONAL WEATHER ROUNDUP
NATIONAL WEATHER SERVICE MILWAUKEE/SULLIVAN WI
300 AM CDT THU MAR 23 2017

NOTE: "FAIR" INDICATES FEW OR NO CLOUDS BELOW 12,000 FEET WITH NO
SIGNIFICANT WEATHER AND/OR OBSTRUCTIONS TO VISIBILITY.

WIZ001-002-006>008-014>016-023>028-230900-
NORTHWEST WISCONSIN

CITY           SKY/WX    TMP DP  RH WIND       PRES   REMARKS
SUPERIOR ARPT  CLOUDY    33  20  59 S5        30.27F WCI  28
ASHLAND        FLURRIES  30  18  60 S5        30.31S WCI  25
HAYWARD        CLOUDY    32  20  61 SE9       30.28F WCI  24
SIREN          CLOUDY    34  13  42 CALM      30.27R
CUMBERLAND     CLOUDY    32  14  47 SE10      30.26F WCI  24
RICE LAKE      CLOUDY    33  15  48 SE5       30.29F WCI  29
CHETEK         CLOUDY    33  15  48 SE10      30.29F WCI  25
LADYSMITH      CLOUDY    32  20  59 SE7       30.32F WCI  26
EAU CLAIRE     CLOUDY    34  16  47 SE12      30.30S WCI  25
MENOMONIE      CLOUDY    35  17  48 E9        30.29F WCI  27
NEW RICHMOND   CLOUDY    34  16  47 SE6       30.26F WCI  29
OSCEOLA        CLOUDY    35  20  55 SE10      30.28F WCI  27
$$

WIZ003>005-009-010-017-018-230900-
NORTH CENTRAL WISCONSIN

CITY           SKY/WX    TMP DP  RH WIND       PRES   REMARKS
MANITOWISH WTR CLOUDY    27  14  59 S8        30.31S WCI  19
ARBOR VITAE    CLOUDY    29  17  60 S7        30.31F WCI  22
WOODRUFF       CLOUDY    29  17  60 S7        30.31F WCI  22
RHINELANDER    CLOUDY    28  16  60 SE8       30.33F WCI  20
EAGLE RIVER    CLOUDY    25  13  61 S6        30.33S WCI  18
LAND O LAKES   CLOUDY    27  13  55 S7        30.34S WCI  19
PHILLIPS       CLOUDY    29  16  59 S10       30.30F WCI  20
TOMAHAWK       CLOUDY    27  18  67 CALM      30.33F
MEDFORD        CLOUDY    28  19  69 SE9       30.32F WCI  19
MERRILL        CLOUDY    27  20  73 SE8       30.36F WCI  19
$$

WIZ029-030-035-036-043>047-230900-
CENTRAL WISCONSIN

CITY           SKY/WX    TMP DP  RH WIND       PRES   REMARKS
WAUSAU         CLOUDY    26  19  74 SE8       30.35F WCI  18
MOSINEE        CLOUDY    27  21  80 SE9       30.37F WCI  17
MARSHFIELD     CLOUDY    29  19  66 SE13      30.34F WCI  19
STEVENS POINT  CLOUDY    24  18  78 SE8       30.39F WCI  15
WAUPACA        CLOUDY    28  21  75 CALM      30.43S
WAUTOMA        CLOUDY    26  20  77 SE6       30.42F WCI  19
WISC RAPIDS    CLOUDY    27  20  75 SE8       30.40F WCI  19
CAMP DOUGLAS   CLOUDY    31  21  67 SE10      30.35F WCI  22
$$

WIZ011>013-019>022-031-037>040-048>050-230900-
NORTHEAST WISCONSIN

CITY           SKY/WX    TMP DP  RH WIND       PRES   REMARKS
ANTIGO         CLOUDY    23  19  86 S7        30.37S WCI  15
SHAWANO        CLOUDY    26  20  79 CALM      30.43F
OCONTO         PTCLDY    24  18  76 S3        30.44S
STURGEON BAY   CLOUDY    25  20  81 S5        30.44F WCI  19
GREEN BAY      CLOUDY    26  22  84 S5        30.44S WCI  20
MANITOWOC      CLOUDY    28  22  78 S7        30.45F WCI  21
APPLETON       CLOUDY    27  19  74 SE6       30.40F WCI  20
CLINTONVILLE   CLOUDY    27  19  74 S3        30.43S
OSHKOSH        CLOUDY    23  17  78 S5        30.41F WCI  17
$$

WIZ032>034-041-042-053>061-230900-
SOUTHWEST WISCONSIN

CITY           SKY/WX    TMP DP  RH WIND       PRES   REMARKS
LA CROSSE      CLOUDY    38  21  50 SE12      30.32F WCI  30
SPARTA         CLOUDY    34  21  58 SE9       30.35F WCI  27
VIROQUA        CLOUDY    32  21  62 SE12      30.32S WCI  23
BOSCOBEL       CLOUDY    34  19  54 E9        30.37F WCI  27
PRAIRIE DU CHI CLOUDY    37  17  45 SE7       30.34S WCI  31
PLATTEVILLE    CLOUDY    32  22  67 SE9       30.36F WCI  24
$$

WIZ056-057-062-063-064-067-068-230900-
SOUTH CENTRAL WISCONSIN

CITY           SKY/WX    TMP DP  RH WIND       PRES   REMARKS
REEDSBURG      CLOUDY    30  20  67 SE3       30.38F
BARABOO/DELLS  CLOUDY    29  20  71 SE7       30.38F WCI  21
LONE ROCK      CLOUDY    31  19  61 SE8       30.39F WCI  23
MINERAL POINT  CLOUDY    32  21  64 SE12      30.34F WCI  23
MADISON        CLOUDY    27  19  72 SE8       30.40F WCI  19
MIDDLETON      CLOUDY    30  20  68 SE7       30.40S WCI  23
WATERTOWN      CLOUDY    25  20  82 SE7       30.41F WCI  17
MONROE         CLOUDY    28  21  74 E6        30.38S WCI  22
JANESVILLE     CLOUDY    30  23  74 SE6       30.40S WCI  24
$$

WIZ051-052-058>065-066-070>072-230900-
SOUTHEAST WISCONSIN

CITY           SKY/WX    TMP DP  RH WIND       PRES   REMARKS
MILWAUKEE      CLOUDY    30  22  72 SE5       30.44F WCI  25
WAUKESHA       CLOUDY    23  18  80 E5        30.43F WCI  17
MILWAUKEE/TIMM CLOUDY    23  18  80 CALM      30.45F
RACINE         CLOUDY    32  24  72 SE9       30.45F WCI  24
KENOSHA        CLOUDY    28  22  78 SE5       30.43F WCI  23
FOND DU LAC    CLOUDY    26  18  71 S7        30.42S WCI  18
SHEBOYGAN      CLOUDY    26  19  74 S5        30.44F WCI  20
WEST BEND      CLOUDY    23  21  93 CALM      30.43S
JUNEAU         PTCLDY    25  19  80 SE6       30.42F WCI  18
$$

LSZ147-162-230900-
LAKE SUPERIOR

STATION/POSITION TIME  TEMP    WIND        PRES    WAVE
                       AIR SEA DIR/SP/G            HT/PER
                 (UTC) (F)     (DEG/KT/KT) (MB)    (FT/S)
DEVILS ISLAND    0800   32     160/  7/ 12 1026.9F
PORT WING        0730   33     150/  5/  9 1025.4F
SAXON HARBOR     0740   34     180/  6/ 11 1025.7F
$$

LMZ867-665-643>646-230900-
LAKE MICHIGAN

STATION/POSITION TIME  TEMP    WIND        PRES    WAVE
                       AIR SEA DIR/SP/G            HT/PER
                 (UTC) (F)     (DEG/KT/KT) (MB)    (FT/S)
CHAMBERS ISLAND  0740   25     140/  2/  7 1029.8F
NORTHPORT PIER   0803   28     160/  3/  8 1030.5
SISTER BAY       0650   25     160/  7/  8   N/A
KEWAUNEE LAKESHO 0748   30     170/ 14/ 17 1030.2F
SHEBOYGAN LAKESH 0800   31     150/ 14/ 15 1031.6F
PORT WASHINGTON  0740   33     150/ 10/ 14 1031.8F
MILWAUKEE LAKESH 0750   33     130/ 11/ 13   N/A
KENOSHA   LAKESH 0800   35     150/ 16/ 18 1030.1
$$

TC  - TEMPERATURE IN CELSIUS
VSB - VISIBILITY IN STATUTE MILES
WCI - WIND CHILL INDEX
HX  - HEAT INDEX




USA.gov is the U.S. government's official web portal to all federal, state and local government web resources and services.